Temperature
19 18 18 18 18 18 18 18 18 18 18 17 17 17 17 16 16 16 16 16 15 15 15 15 15 15 15 15 15 15 15 15 15 15 16 16 16 17 16 16 16 16 16
19 19 18 18 18 18 18 18 18 17 17 17 17 17 17 16 16 16 15 15 15 15 15 14 14 14 14 14 14 14 14 15 15 15 16 17 17 17 17 16 16 16 16
20 20 19 19 18 18 18 18 17 17 17 17 16 16 16 16 16 15 15 14 14 14 14 14 14 14 14 14 14 13 14 14 14 15 15 16 17 17 17 16 16 15 15
21 20 20 19 19 18 18 17 17 17 17 16 16 16 16 16 16 15 15 14 14 13 13 13 13 13 13 13 13 14 13 13 14 14 14 14 15 15 16 16 16 15 15
21 21 20 19 19 18 18 17 17 17 16 16 16 15 15 15 15 14 14 13 14 13 13 12 12 12 12 12 12 12 12 13 13 14 14 14 14 14 14 15 16 16 16
21 21 20 19 19 18 18 17 17 16 16 16 15 15 14 14 14 13 13 13 14 13 13 12 12 12 12 12 11 12 12 12 12 13 13 14 14 14 14 15 15 15 16
22 21 20 20 19 18 18 17 16 16 16 15 15 14 14 13 13 13 13 13 13 13 12 12 11 11 11 11 11 11 11 11 11 12 12 13 13 14 14 14 15 15 15
22 21 20 20 19 18 17 17 16 15 15 14 14 14 13 13 13 12 12 12 12 12 11 11 11 11 11 11 11 11 11 11 11 11 11 12 12 13 13 13 14 14 15
22 21 20 20 19 18 17 16 16 15 14 14 13 13 12 12 12 11 11 12 11 11 11 10 10 10 10 10 10 10 10 11 11 11 11 11 12 12 12 12 13 13 14
22 21 20 19 18 18 17 16 15 14 14 13 13 13 12 12 11 11 11 11 10 10 10 10 10 10 10 10 10 10 10 10 10 10 10 11 11 12 12 12 12 12 13
22 21 20 19 18 17 16 16 15 14 14 13 12 12 12 11 11 11 11 10 10 10 10 9 9 9 9 9 9 10 10 10 10 10 10 10 10 11 12 12 12 12 12
22 20 19 18 18 17 16 16 15 14 13 13 12 12 11 11 11 11 10 10 10 10 9 9 9 9 9 9 9 9 9 9 10 10 10 10 10 10 10 11 11 12 12
21 20 19 18 17 17 16 15 15 14 14 13 12 12 11 11 11 10 10 10 9 9 9 9 9 9 9 9 9 9 9 9 9 9 9 10 10 10 10 10 11 11 12
20 20 19 18 17 16 15 15 14 14 13 13 12 12 11 11 10 10 10 9 9 9 9 9 9 9 9 9 9 9 9 9 9 9 9 9 9 9 10 10 10 10 11
20 20 19 18 17 16 15 15 14 13 13 12 12 12 11 10 10 10 10 9 9 9 9 9 9 9 9 9 9 8 8 9 9 9 9 9 9 9 9 10 10 10 10
21 20 19 18 17 16 15 15 14 13 13 12 12 11 11 10 10 10 9 9 9 9 9 9 9 9 9 9 9 8 8 8 8 8 8 8 8 9 9 9 9 9 9
21 20 19 18 17 16 15 14 14 13 13 12 11 11 11 10 10 10 9 9 9 9 9 9 9 8 8 8 8 8 8 8 8 8 8 8 9 9 8 8 9 9 9
21 20 19 18 17 16 15 14 14 13 13 12 12 11 10 10 10 10 9 9 9 9 9 9 9 9 9 8 8 8 8 8 8 8 8 8 8 8 8 8 9 9 9
20 19 19 18 17 16 15 14 14 13 13 12 12 11 10 10 10 9 9 9 9 9 9 9 8 8 9 8 8 8 8 8 8 8 8 8 8 8 8 8 8 8 9
20 19 18 17 16 16 15 14 14 13 13 12 11 11 10 10 10 9 9 9 9 9 9 9 9 8 8 8 8 8 7 7 8 8 8 8 7 7 7 7 7 8 8
19 18 18 17 16 15 15 14 14 13 13 12 11 11 10 10 10 9 9 9 9 9 9 9 9 9 8 8 8 8 8 7 7 7 7 7 7 7 7 7 7 7 8
19 18 18 17 16 15 15 14 13 13 12 11 11 11 10 10 10 10 9 9 9 9 9 9 9 9 9 8 8 8 8 7 7 7 7 7 7 7 7 7 7 7 7
19 18 17 17 16 15 15 14 14 13 12 12 11 11 10 10 10 10 10 9 9 9 9 9 9 9 9 8 8 8 8 7 7 7 7 7 7 7 7 7 7 7 7
19 18 17 17 16 15 15 14 13 13 12 12 11 11 11 10 10 10 10 10 10 9 9 9 9 9 9 8 8 8 7 7 7 6 7 7 7 7 7 7 7 7 7
18 17 17 16 16 15 15 14 13 13 12 12 11 11 11 11 10 10 10 10 9 9 9 9 9 9 8 8 8 8 7 7 7 6 6 7 7 7 7 7 7 7 7
18 17 17 16 16 15 15 14 13 13 12 12 12 12 12 11 11 11 10 10 10 10 9 9 9 8 8 8 8 8 7 7 7 7 6 7 7 7 7 7 7 7 7
Wind_Speed
8 7 6 6 5 5 5 3 3 3 2 1 2 2 2 2 2 2 2 3 4 4 5 6 4 6 7 7 8 8 8 8 7 8 9 9 11 10 9 9 10 12 14
8 7 6 5 5 5 4 4 3 3 2 1 2 2 3 3 3 3 2 3 4 4 5 4 7 6 6 8 8 8 9 8 7 8 9 9 9 7 8 7 8 10 9
8 7 6 6 5 5 4 3 2 2 3 3 3 3 3 4 4 4 4 4 4 5 6 7 8 7 9 8 7 8 10 9 8 8 8 8 9 6 6 6 7 7 7
7 6 6 6 5 5 5 3 3 3 3 4 4 5 6 7 6 6 5 5 6 7 7 8 8 8 9 8 9 9 8 9 10 8 8 9 9 8 9 8 7 7 8
6 6 6 5 5 4 4 4 3 3 3 4 4 6 7 7 7 6 6 7 7 7 8 8 8 8 9 9 9 9 10 9 10 10 9 9 9 11 10 11 9 8 8
6 6 5 5 4 4 3 3 3 3 3 4 5 6 7 7 8 8 9 8 7 7 7 8 8 9 9 9 10 10 11 10 11 10 10 10 9 9 9 11 11 10 9
7 7 6 6 5 4 3 2 2 2 2 3 4 5 6 7 7 8 8 8 9 8 7 8 8 9 9 10 10 10 11 11 11 11 11 11 11 10 10 11 11 11 9
7 6 6 5 4 3 3 3 2 2 3 3 4 4 5 7 7 6 9 9 9 9 9 9 10 10 11 11 10 11 12 11 11 12 12 10 11 10 10 10 10 11 10
7 6 5 5 4 3 3 2 2 2 3 4 4 5 6 7 8 8 9 9 8 9 10 10 11 11 11 11 11 11 11 11 12 13 13 12 11 11 10 10 10 11 11
7 6 5 4 3 3 2 1 2 3 4 5 6 6 6 7 8 9 10 10 11 10 11 12 12 12 12 12 12 12 12 11 12 11 12 12 12 10 10 11 11 11 11
7 6 5 4 4 3 2 2 3 4 5 5 6 7 8 9 9 10 10 10 10 11 11 12 12 12 12 12 11 12 13 13 13 13 13 14 14 12 11 11 11 11 11
6 6 6 5 3 3 2 3 4 5 5 6 6 8 8 9 10 11 10 11 11 11 12 12 12 13 13 12 12 13 13 13 14 14 14 14 13 14 13 12 13 12 11
7 6 5 4 3 3 3 4 5 5 6 6 7 8 9 10 10 11 11 11 11 12 12 12 12 13 13 13 13 13 13 14 14 14 14 15 14 14 13 13 13 12 12
8 6 5 4 3 3 4 5 5 6 7 7 8 9 9 10 11 11 11 11 11 11 12 12 12 12 12 13 13 13 13 14 14 14 15 15 15 15 14 13 14 13 13
7 7 5 4 4 4 4 5 5 6 7 8 9 9 10 10 11 11 11 11 11 12 12 12 12 12 11 11 11 12 13 14 14 15 15 15 14 13 12 12 12 12 12
7 6 5 4 4 4 4 5 6 6 7 8 9 10 10 10 11 11 11 11 11 12 12 12 12 12 11 4 4 10 14 14 15 15 14 14 14 15 15 16 16 15 14
7 6 5 5 4 4 4 5 6 6 7 8 9 10 10 11 11 12 12 11 11 12 12 12 12 13 12 7 8 11 13 15 15 15 14 13 14 13 15 16 20 20 19
7 6 5 4 4 3 4 4 6 7 8 9 9 10 10 11 11 12 12 11 11 11 12 12 13 13 11 7 9 10 13 15 16 16 16 15 15 15 14 15 15 16 17
7 6 5 4 3 4 4 5 6 7 8 9 9 10 10 11 12 12 12 11 11 12 12 12 12 13 12 8 9 9 12 12 15 15 15 15 15 13 10 14 15 15 14
7 6 5 5 4 4 4 5 7 8 8 9 9 10 10 11 12 12 12 11 11 12 12 12 12 13 13 8 7 8 10 12 12 12 12 13 14 11 9 14 15 15 14
8 7 6 6 5 4 5 6 7 8 8 9 10 10 10 11 12 12 11 11 11 12 12 13 12 12 12 10 8 9 9 11 11 11 10 9 9 12 12 13 14 13 11
9 8 7 6 5 5 6 7 8 8 8 9 10 11 11 11 10 11 11 11 11 12 12 11 12 10 9 8 6 8 10 11 11 11 10 7 4 8 11 12 12 10 9
8 8 7 7 6 6 6 8 8 7 8 9 10 11 11 11 11 11 12 11 10 9 10 10 10 10 9 6 8 10 11 12 10 10 9 8 7 8 10 13 12 11 11
8 7 7 7 6 6 7 8 8 7 8 10 10 10 11 11 10 9 9 10 10 9 10 10 10 10 9 8 6 5 6 9 10 10 9 11 11 11 9 8 11 12 11
6 6 7 7 6 6 7 8 8 8 9 10 10 11 11 10 9 10 9 10 10 9 10 11 11 11 10 7 6 8 8 8 7 8 8 8 7 8 8 9 9 10 10
5 6 7 7 7 7 8 8 8 8 9 10 10 10 9 9 9 10 10 9 12 11 13 15 14 11 11 11 10 10 11 12 10 8 8 8 7 8 8 8 9 9 10
Wind_Direction
119 126 131 135 141 142 136 148 165 162 188 209 244 245 248 250 249 254 274 282 289 287 284 292 290 278 278 279 278 276 271 268 273 274 272 265 255 253 255 251 255 251 247
137 142 147 149 151 148 150 166 178 182 210 209 270 280 292 278 280 285 272 276 284 290 286 299 292 287 286 273 272 270 278 277 267 272 283 279 267 235 248 247 246 255 257
151 153 158 157 159 161 172 173 180 208 228 239 246 248 247 255 253 262 261 273 286 288 298 296 295 300 287 281 281 275 266 272 271 262 270 281 283 295 267 260 260 263 266
165 166 168 168 174 176 181 187 207 227 237 245 259 273 282 289 300 293 292 289 280 285 288 289 289 288 288 288 276 271 275 268 269 261 254 263 283 283 282 269 261 258 263
178 179 179 181 188 191 195 199 210 229 244 260 268 274 281 291 292 296 292 289 285 280 283 287 290 287 282 285 288 289 277 272 268 270 265 259 256 255 265 276 280 274 268
188 189 189 190 198 201 205 208 205 224 248 262 274 280 291 295 299 296 296 290 287 283 282 286 285 281 283 282 276 275 270 269 274 273 271 264 261 261 264 269 272 275 276
200 198 198 197 197 198 203 208 205 225 256 273 283 288 296 292 283 290 295 295 295 292 294 295 292 287 285 280 276 271 272 270 266 263 264 264 263 265 268 271 276 281 280
201 200 197 196 195 196 199 207 223 252 278 287 293 296 294 290 299 305 302 297 295 299 307 295 287 285 282 278 275 273 266 262 262 264 265 267 264 262 261 266 275 278 276
197 194 190 190 187 189 190 210 242 273 290 297 294 287 292 298 301 296 282 289 295 293 293 292 288 284 281 277 276 271 271 268 263 262 256 254 261 259 258 259 261 268 275
188 180 173 171 167 170 174 217 268 283 290 287 290 293 294 292 291 290 297 294 291 288 287 286 286 283 279 275 272 272 265 263 262 262 267 266 264 261 258 256 256 256 262
182 170 164 160 167 186 211 248 269 277 286 290 290 293 292 295 293 289 289 290 288 288 285 285 285 283 280 276 272 270 273 267 265 263 259 256 260 262 261 255 253 253 253
172 168 166 170 190 221 259 274 284 287 290 292 290 292 294 294 293 294 296 293 288 285 285 284 284 282 280 277 273 270 271 269 266 264 263 261 257 253 255 257 253 253 254
175 174 177 192 214 246 272 285 286 291 296 298 296 298 298 299 298 298 296 294 291 288 287 285 284 284 283 280 275 272 270 268 267 265 264 262 260 258 255 253 254 251 247
181 188 194 210 230 253 272 281 288 297 298 299 299 300 302 303 301 299 297 294 292 291 289 288 286 285 283 280 277 275 272 269 267 265 263 261 259 257 256 253 251 253 253
193 199 212 221 239 258 274 283 291 295 299 298 299 302 304 303 300 300 298 296 293 290 289 288 286 285 282 278 284 285 280 276 271 267 263 260 260 267 266 264 258 251 247
206 208 215 229 244 263 279 289 292 296 295 295 299 302 302 303 303 302 300 298 295 293 290 287 286 285 283 312 307 284 283 280 275 272 267 264 255 246 240 249 260 265 257
212 214 222 232 247 265 277 281 286 291 293 295 298 301 303 304 305 304 304 301 298 295 292 290 288 286 285 266 254 259 273 273 271 270 267 265 262 247 247 235 231 241 246
213 213 223 229 240 253 261 272 286 290 294 297 299 303 303 304 305 304 301 300 297 295 292 291 290 289 285 256 249 257 266 266 266 265 263 262 264 261 257 255 246 240 235
210 213 223 233 241 258 266 275 285 292 295 299 302 304 305 304 303 302 302 301 297 294 292 291 291 290 287 262 245 258 278 271 269 267 264 263 262 256 245 254 255 252 246
204 209 215 225 234 249 261 270 283 292 297 302 304 304 301 300 300 300 301 299 295 291 292 293 293 290 288 275 237 249 275 277 278 275 268 258 254 262 239 248 250 249 244
204 207 218 228 237 243 251 267 283 292 299 302 301 299 298 297 294 295 295 294 292 292 292 292 290 286 281 272 234 236 268 280 283 281 276 270 232 232 235 244 252 255 259
208 208 214 226 230 232 244 264 278 291 295 295 294 296 297 298 300 297 294 294 293 291 290 290 291 290 281 270 243 221 244 272 278 278 279 281 253 232 231 235 244 250 252
213 214 218 226 230 232 244 262 276 285 288 290 291 294 296 297 294 294 296 295 292 292 296 299 300 302 302 282 218 225 239 248 262 275 288 291 276 250 238 232 232 231 232
215 213 219 228 235 241 247 257 269 275 278 282 288 290 292 294 297 296 293 295 298 299 301 302 302 302 301 301 301 282 260 243 254 268 263 242 241 244 253 233 218 225 227
209 210 219 230 243 252 255 258 263 265 272 278 283 287 290 294 296 292 289 290 292 296 295 300 301 301 302 322 336 305 296 299 303 303 281 265 248 236 229 227 224 219 218
205 208 220 233 242 247 253 257 256 254 262 272 278 286 292 298 297 298 297 262 251 259 251 252 265 282 280 287 286 279 274 275 279 279 268 262 253 243 232 226 222 219 218
Height
1537 1537 1538 1539 1540 1541 1541 1542 1543 1544 1544 1545 1546 1546 1546 1545 1545 1544 1543 1542 1542 1541 1540 1540 1538 1537 1537 1536 1536 1535 1535 1534 1534 1533 1532 1530 1529 1528 1527 1527 1527 1527 1528
1537 1539 1539 1540 1541 1542 1542 1542 1543 1544 1544 1544 1544 1544 1544 1544 1543 1543 1541 1540 1539 1538 1538 1536 1536 1535 1533 1532 1531 1531 1531 1531 1530 1530 1529 1526 1525 1523 1523 1523 1522 1522 1522
1537 1539 1540 1541 1542 1542 1542 1543 1543 1543 1543 1543 1543 1543 1542 1541 1542 1541 1540 1538 1536 1535 1534 1533 1532 1531 1531 1530 1528 1527 1527 1527 1527 1526 1526 1524 1521 1520 1520 1519 1519 1517 1517
1536 1538 1539 1540 1541 1542 1542 1542 1541 1541 1541 1541 1542 1541 1541 1541 1540 1538 1537 1535 1533 1532 1531 1530 1528 1527 1527 1526 1525 1524 1523 1522 1522 1522 1521 1521 1520 1519 1517 1516 1515 1513 1512
1535 1537 1538 1539 1540 1541 1541 1541 1540 1540 1539 1539 1539 1539 1539 1538 1537 1535 1534 1532 1531 1528 1527 1526 1524 1523 1522 1521 1520 1519 1518 1518 1518 1518 1517 1516 1516 1515 1515 1512 1511 1510 1509
1533 1535 1537 1538 1539 1539 1539 1539 1538 1538 1538 1537 1536 1536 1535 1534 1533 1531 1530 1529 1527 1525 1524 1522 1520 1519 1518 1517 1515 1514 1514 1513 1513 1512 1513 1512 1512 1511 1510 1509 1507 1506 1505
1531 1533 1535 1536 1537 1537 1537 1537 1537 1536 1535 1535 1534 1532 1531 1530 1529 1528 1527 1525 1524 1522 1520 1518 1516 1514 1513 1511 1510 1510 1509 1508 1507 1507 1507 1507 1507 1507 1506 1505 1503 1502 1500
1529 1530 1532 1533 1534 1535 1535 1535 1534 1534 1533 1532 1531 1529 1527 1527 1526 1524 1522 1521 1519 1518 1515 1513 1511 1509 1508 1507 1506 1505 1504 1503 1502 1502 1502 1501 1502 1501 1501 1501 1500 1498 1496
1526 1528 1529 1531 1532 1532 1532 1532 1532 1531 1530 1529 1527 1526 1524 1523 1521 1519 1518 1517 1515 1513 1511 1508 1506 1504 1503 1501 1500 1499 1498 1498 1497 1497 1496 1496 1496 1496 1496 1496 1496 1496 1493
1523 1525 1527 1528 1529 1530 1530 1529 1529 1528 1527 1526 1524 1524 1521 1520 1517 1516 1514 1511 1509 1507 1505 1503 1501 1499 1498 1496 1494 1494 1493 1492 1491 1490 1490 1490 1490 1490 1490 1490 1490 1490 1489
1521 1523 1525 1526 1527 1527 1527 1527 1526 1525 1524 1522 1521 1519 1518 1516 1514 1512 1510 1507 1504 1502 1499 1498 1496 1494 1492 1491 1489 1488 1487 1486 1485 1485 1484 1484 1483 1484 1484 1484 1484 1484 1484
1519 1521 1523 1524 1525 1525 1525 1525 1523 1522 1521 1519 1518 1516 1514 1511 1509 1508 1505 1502 1499 1497 1495 1492 1490 1488 1487 1485 1484 1482 1482 1480 1479 1479 1478 1478 1478 1477 1477 1478 1478 1478 1478
1517 1519 1521 1522 1523 1523 1522 1522 1521 1520 1518 1517 1515 1513 1510 1508 1505 1503 1500 1497 1494 1492 1489 1487 1485 1483 1481 1479 1478 1476 1475 1474 1473 1472 1472 1471 1471 1471 1471 1471 1472 1473 1473
1515 1517 1518 1519 1520 1520 1519 1518 1518 1517 1515 1513 1511 1509 1506 1504 1501 1498 1495 1492 1489 1487 1484 1482 1480 1477 1475 1473 1472 1471 1469 1467 1466 1465 1465 1464 1464 1464 1464 1465 1465 1466 1467
1513 1514 1516 1517 1517 1517 1516 1516 1515 1513 1512 1510 1508 1505 1503 1500 1497 1493 1490 1487 1485 1482 1479 1477 1474 1472 1470 1468 1467 1465 1463 1461 1460 1458 1457 1457 1457 1457 1458 1459 1459 1460 1461
1510 1511 1513 1514 1514 1514 1513 1512 1511 1510 1508 1506 1504 1502 1498 1496 1492 1489 1486 1483 1480 1477 1474 1472 1469 1467 1466 1464 1461 1458 1456 1455 1453 1452 1451 1450 1450 1449 1449 1450 1451 1453 1454
1507 1509 1510 1511 1511 1511 1510 1509 1508 1506 1505 1502 1500 1498 1495 1492 1489 1485 1482 1479 1476 1473 1470 1467 1464 1461 1459 1457 1454 1452 1449 1448 1446 1445 1444 1444 1444 1444 1443 1443 1443 1444 1446
1504 1506 1507 1508 1508 1508 1507 1506 1505 1503 1501 1499 1497 1494 1491 1488 1485 1481 1478 1474 1471 1468 1465 1461 1459 1456 1453 1451 1448 1446 1443 1441 1439 1438 1437 1436 1436 1437 1437 1437 1438 1438 1439
1501 1503 1504 1505 1504 1504 1504 1502 1501 1500 1498 1496 1493 1491 1487 1484 1480 1477 1474 1470 1466 1463 1460 1457 1453 1450 1447 1445 1443 1440 1437 1435 1433 1432 1430 1429 1429 1429 1429 1430 1431 1432 1433
1498 1499 1500 1501 1500 1500 1500 1498 1498 1497 1495 1493 1490 1487 1483 1480 1476 1472 1469 1466 1462 1458 1455 1452 1448 1445 1442 1440 1437 1435 1432 1430 1428 1426 1424 1422 1422 1422 1422 1423 1424 1425 1427
1494 1495 1496 1497 1497 1496 1495 1495 1494 1493 1491 1488 1485 1482 1479 1475 1472 1468 1464 1461 1457 1454 1450 1446 1443 1440 1436 1434 1431 1429 1427 1425 1422 1420 1418 1417 1416 1415 1415 1416 1418 1419 1421
1490 1491 1492 1493 1493 1492 1492 1491 1490 1489 1486 1483 1481 1478 1475 1471 1468 1464 1460 1456 1453 1449 1445 1442 1438 1435 1432 1429 1426 1424 1422 1419 1417 1414 1413 1412 1410 1409 1409 1410 1411 1413 1415
1487 1488 1488 1489 1489 1489 1488 1487 1486 1484 1481 1479 1477 1474 1470 1467 1463 1460 1456 1452 1449 1445 1442 1438 1434 1431 1428 1425 1422 1419 1416 1414 1411 1409 1407 1405 1404 1404 1404 1404 1405 1407 1409
1483 1484 1484 1485 1486 1486 1485 1483 1481 1479 1477 1474 1472 1469 1466 1463 1460 1456 1452 1449 1445 1442 1438 1434 1430 1427 1424 1421 1418 1415 1412 1409 1406 1404 1401 1400 1399 1398 1398 1399 1400 1401 1404
1478 1479 1480 1481 1482 1481 1480 1479 1477 1475 1473 1470 1468 1465 1463 1459 1455 1452 1448 1444 1441 1438 1434 1430 1427 1423 1420 1417 1414 1411 1408 1405 1402 1399 1397 1396 1395 1394 1394 1394 1395 1396 1398
1474 1475 1476 1477 1476 1476 1475 1474 1472 1470 1468 1466 1464 1462 1459 1455 1452 1448 1444 1440 1437 1433 1429 1425 1422 1418 1415 1411 1408 1406 1403 1400 1398 1395 1393 1392 1391 1390 1390 1390 1391 1392 1393